Gainesville, FL

8:57 AM EST on December 16, 2019 (GMT -0500)
Gainesville Regional

Weather History for KGNV - October, 2019

Change the Weather History Date:

Thursday, October 3, 2019

  Actual Average Record
Temperature  
Mean Temperature 79 °F 75 °F  
Max Temperature 92 °F 84 °F 95 °F (1911)
Min Temperature 65 °F 65 °F 48 °F (1984)
Degree Days  
Heating Degree Days 0 0  
Month to date heating degree days 0 0  
Since 1 July heating degree days 0 0  
Cooling Degree Days 14 10  
Month to date cooling degree days 46 30  
Year to date cooling degree days 3062 2370  
Growing Degree Days 28 (Base 50)    
Moisture  
Dew Point 66 °F    
Average Humidity 72    
Maximum Humidity 100    
Minimum Humidity 44    
Precipitation  
Precipitation 0.00 in 0.13 in 5.13 in (1992)
Month to date precipitation 0.05 0.40  
Year to date precipitation 38.29 40.39  
Snow  
Snow 0.00 in 0.00 in 0.00 in ()
Month to date snowfall 0.0 0.0  
Since 1 July snowfall 0.0 0.0  
Since 1 September snowfall 0.0 0.0  
Snow Depth 0.00 in    
Sea Level Pressure  
Sea Level Pressure 30.03 in    
Wind  
Wind Speed 3 mph (East)    
Max Wind Speed 13 mph    
Max Gust Speed -    
Visibility 8 miles    
Events      
T = Trace of Precipitation, MM = Missing Value Source: NWS Daily Summary

Daily Weather History Graph

Daily Weather History Graph

Search for Another Location

Airport or City:

Astronomy

Oct. 03, 2019 Rise Set
Actual Time 7:23 AM EDT 7:12 PM EDT
Civil Twilight 6:59 AM EDT 7:36 PM EDT
Nautical Twilight 6:31 AM EDT 8:03 PM EDT
Astronomical Twilight 6:04 AM EDT 8:31 PM EDT
Moon 12:32 PM EDT (10/3) 11:12 PM EDT (10/3)
Length of Visible Light 12h 36m
Length of Day
11h 49m
Waxing Crescent, 29% of the Moon is Illuminated
Oct 3
Waxing Crescent
Oct 5
First Quarter
Oct 13
Full
Oct 21
Last Quarter
Oct 27
New

Hourly Weather History & Observations

Time (EDT) Temp. Heat Index Dew Point Humidity Pressure Visibility Wind Dir Wind Speed Gust Speed Precip Events Conditions
12:53 AM 69.1 °F - 68.0 °F 96% 30.02 in 10.0 mi Calm Calm - N/A   Clear
1:53 AM 70.0 °F - 68.0 °F 93% 30.01 in 10.0 mi Calm Calm - N/A   Clear
2:53 AM 69.1 °F - 68.0 °F 96% 30.00 in 7.0 mi Calm Calm - N/A   Clear
3:27 AM 68.0 °F - 66.0 °F 93% 30.00 in 9.0 mi Calm Calm - N/A   Partly Cloudy
3:53 AM 66.9 °F - 66.0 °F 97% 29.99 in 10.0 mi Calm Calm - N/A   Clear
4:08 AM 66.9 °F - 66.0 °F 97% 30.00 in 10.0 mi Calm Calm - N/A   Scattered Clouds
4:53 AM 66.0 °F - 64.9 °F 96% 30.00 in 10.0 mi Calm Calm - N/A   Clear
5:22 AM 64.9 °F - 64.9 °F 100% 30.01 in 1.8 mi Calm Calm - N/A   Clear
5:35 AM 64.9 °F - 64.0 °F 97% 30.02 in 3.0 mi Calm Calm - N/A   Clear
5:45 AM 64.9 °F - 64.0 °F 97% 30.02 in 10.0 mi Calm Calm - N/A   Partly Cloudy
5:53 AM 66.0 °F - 64.0 °F 93% 30.01 in 10.0 mi Calm Calm - N/A   Partly Cloudy
6:42 AM 66.0 °F - 64.9 °F 96% 30.03 in 4.0 mi Calm Calm - N/A   Clear
6:53 AM 66.0 °F - 64.9 °F 96% 30.03 in - North - - N/A   Unknown
6:55 AM 66.0 °F - 64.9 °F 96% 30.03 in 3.0 mi Calm Calm - N/A   Clear
7:53 AM - - - N/A% 30.05 in 3.0 mi Calm Calm - N/A   Clear
7:54 AM 68.0 °F - 68.0 °F 100% 30.05 in 7.0 mi Calm Calm - N/A   Clear
8:53 AM 73.0 °F - 73.0 °F 100% 30.06 in 7.0 mi Calm Calm - N/A   Clear
9:53 AM - - - N/A% 30.07 in - North - - N/A   Unknown
10:53 AM 82.0 °F 86.7 °F 72.0 °F 71% 30.07 in 10.0 mi ENE 4.6 mph - N/A   Scattered Clouds
11:53 AM - - - N/A% 30.07 in - North - - N/A   Unknown
1:53 PM 90.0 °F 92.4 °F 66.0 °F 45% 30.03 in 10.0 mi ESE 12.7 mph - N/A   Scattered Clouds
2:53 PM - - - N/A% - - North - - N/A   Unknown
3:21 PM - - - N/A% - - North - - N/A   Unknown
3:53 PM 89.6 °F 92.2 °F 66.2 °F 46% 30.00 in 10.0 mi ESE 11.5 mph - N/A   Scattered Clouds
4:53 PM 91.4 °F 94.0 °F 66.2 °F 43% 29.98 in 10.0 mi East 12.7 mph - N/A   Partly Cloudy
5:53 PM 87.1 °F 88.9 °F 64.9 °F 48% 30.00 in 10.0 mi East 10.4 mph - N/A   Clear
6:53 PM 82.9 °F 85.0 °F 66.0 °F 56% 30.01 in 10.0 mi East 4.6 mph - N/A   Clear
7:53 PM 75.9 °F - 66.0 °F 71% 30.02 in 10.0 mi East 4.6 mph - N/A   Clear
8:53 PM 73.9 °F - 66.0 °F 76% 30.04 in 10.0 mi ESE 4.6 mph - N/A   Clear
9:53 PM 72.0 °F - 66.0 °F 81% 30.05 in 10.0 mi East 3.5 mph - N/A   Clear
10:53 PM 70.0 °F - 66.9 °F 90% 30.06 in 10.0 mi Calm Calm - N/A   Clear
11:53 PM 69.1 °F - 66.0 °F 90% 30.06 in 10.0 mi Calm Calm - N/A   Clear